Location: Street
(51.1247°N, 2.7429°W)
Time: 06:32:14
(UTC+00:00)

SR - Pass Details

Date: 28 November 2020
Orbit: 575 x 880 km, 66.7° (Epoch: 25 January)

Event Time Altitude Azimuth Distance (km) Brightness Sun altitude
Rises 22:06:58 0° 290° (WNW) 2,936 - -53.2°
Reaches altitude 10° 22:10:14 10° 316° (NW) 2,089 - -53.6°
Maximum altitude 22:12:49 14° 349° (N) 1,861 - -53.9°
Drops below altitude 10° 22:15:30 10° 22° (NNE) 2,197 - -54.1°
Sets 22:19:06 0° 47° (NE) 3,195 - -54.5°
